TimeCST,TemperatureF,Dew PointF,Humidity,Sea Level PressureIn,VisibilityMPH,Wind Direction,Wind SpeedMPH,Gust SpeedMPH,PrecipitationIn,Events,Conditions,WindDirDegrees,DateUTC
12:52 AM,12.9,9.0,84,30.38,10.0,West,5.8,-,N/A,,Clear,260,2013-01-04 06:52:00
1:52 AM,16.0,10.0,77,30.39,10.0,NW,4.6,-,N/A,,Clear,310,2013-01-04 07:52:00
2:52 AM,16.0,10.0,77,30.40,10.0,WNW,3.5,-,N/A,,Clear,300,2013-01-04 08:52:00
3:52 AM,12.9,9.0,84,30.39,10.0,SW,3.5,-,N/A,,Clear,220,2013-01-04 09:52:00
4:52 AM,10.0,6.1,84,30.38,10.0,SW,3.5,-,N/A,,Clear,230,2013-01-04 10:52:00
5:52 AM,10.9,7.0,84,30.39,10.0,WSW,5.8,-,N/A,,Clear,240,2013-01-04 11:52:00
6:52 AM,12.0,7.0,80,30.39,10.0,WSW,6.9,-,N/A,,Clear,240,2013-01-04 12:52:00
7:52 AM,14.0,8.1,77,30.40,10.0,WSW,6.9,-,N/A,,Clear,250,2013-01-04 13:52:00
8:52 AM,19.9,14.0,78,30.40,10.0,SW,9.2,-,N/A,,Clear,230,2013-01-04 14:52:00
9:52 AM,25.0,19.0,78,30.41,10.0,WSW,11.5,-,N/A,,Clear,250,2013-01-04 15:52:00
10:52 AM,27.0,21.0,78,30.40,10.0,WSW,11.5,-,N/A,,Clear,240,2013-01-04 16:52:00
11:52 AM,30.0,24.1,79,30.37,10.0,WSW,16.1,-,N/A,,Clear,250,2013-01-04 17:52:00
12:52 PM,32.0,25.0,75,30.35,10.0,WSW,13.8,-,N/A,,Clear,250,2013-01-04 18:52:00
1:52 PM,33.1,25.0,72,30.33,10.0,WSW,10.4,19.6,N/A,,Clear,240,2013-01-04 19:52:00
2:52 PM,34.0,24.1,67,30.33,10.0,WSW,10.4,19.6,N/A,,Clear,240,2013-01-04 20:52:00
3:52 PM,35.1,23.0,61,30.33,10.0,SW,11.5,-,N/A,,Clear,230,2013-01-04 21:52:00
4:52 PM,32.0,21.9,66,30.33,10.0,SSW,4.6,-,N/A,,Clear,210,2013-01-04 22:52:00
5:52 PM,28.9,21.0,72,30.33,10.0,SSW,6.9,-,N/A,,Clear,200,2013-01-04 23:52:00
6:52 PM,30.0,21.9,72,30.34,10.0,SW,6.9,-,N/A,,Clear,220,2013-01-05 00:52:00
7:52 PM,30.0,21.0,69,30.33,10.0,SW,8.1,-,N/A,,Clear,220,2013-01-05 01:52:00
8:52 PM,28.0,21.0,75,30.32,10.0,SSW,8.1,-,N/A,,Clear,210,2013-01-05 02:52:00
9:52 PM,28.9,21.0,72,30.31,10.0,SSW,8.1,-,N/A,,Clear,210,2013-01-05 03:52:00
10:52 PM,28.9,19.9,69,30.32,10.0,SW,5.8,-,N/A,,Clear,220,2013-01-05 04:52:00
11:52 PM,28.0,19.9,72,30.31,10.0,SSW,4.6,-,N/A,,Clear,210,2013-01-05 05:52:00